Change the Weather History Date:

Thursday, February 13, 2014

  Actual Average Record
Temperature  
Mean Temperature 45 °F -  
Max Temperature 51 °F 37 °F 56 °F (2015)
Min Temperature 39 °F 23 °F 8 °F (2004)
Degree Days  
Heating Degree Days 20    
Moisture  
Dew Point 29 °F    
Average Humidity 57    
Maximum Humidity 77    
Minimum Humidity 31    
Precipitation  
Precipitation 0.19 in - - ()
Sea Level Pressure  
Sea Level Pressure 30.05 in    
Wind  
Wind Speed 8 mph (South)    
Max Wind Speed 14 mph    
Max Gust Speed -    
Visibility 10 miles    
Events Rain , Thunderstorm    
Averages and records for this station are not official NWS values.
T = Trace of Precipitation, MM = Missing Value Source: NWS Daily Summary

Daily Weather History Graph

Daily Weather History Graph

Search for Another Location

Airport or City:

Trip Planner

Search our weather history database for the weather conditions in past years. The results will help you decide how hot, cold, wet, or windy it might be!

Date:

Astronomy

Feb. 13, 2014 Rise Set
Actual Time 7:24 AM MST 5:59 PM MST
Civil Twilight 6:56 AM MST 6:28 PM MST
Nautical Twilight 6:24 AM MST 7:00 PM MST
Astronomical Twilight 5:52 AM MST 7:32 PM MST
Moon 5:11 PM MST (2/13) 6:20 AM MST (2/13)
Length of Visible Light 11h 31m
Length of Day
10h 34m
Waxing Gibbous, 99% of the Moon is Illuminated
Feb 13
Waxing Gibbous
Feb 14
Full
Feb 22
Last Quarter
Mar 1
New
Mar 8
First Quarter

Hourly Weather History & Observations

Time (MST) Temp. Windchill Dew Point Humidity Pressure Visibility Wind Dir Wind Speed Gust Speed Precip Events Conditions
12:58 AM 42.8 °F 36.6 °F 26.2 °F 52% 30.07 in 10.0 mi SSE 11.5 mph - N/A   Overcast
1:02 AM 42.8 °F 36.2 °F 26.6 °F 53% 30.08 in 10.0 mi SSE 12.7 mph - N/A   Overcast
1:52 AM 41.0 °F 35.8 °F 32.0 °F 70% 30.08 in 9.0 mi ESE 8.1 mph - N/A   Overcast
1:58 AM 41.4 °F 36.2 °F 30.4 °F 65% 30.06 in 9.0 mi ESE 8.1 mph - 0.02 in   Overcast
2:03 AM 41.0 °F 37.1 °F 32.0 °F 70% 30.08 in 10.0 mi SE 5.8 mph - N/A   Overcast
2:38 AM 41.0 °F 35.8 °F 32.0 °F 70% 30.08 in 10.0 mi South 8.1 mph - N/A   Mostly Cloudy
2:58 AM 41.5 °F 39.6 °F 30.0 °F 64% 30.05 in 10.0 mi South 3.5 mph - 0.03 in   Overcast
3:06 AM 41.0 °F 39.0 °F 32.0 °F 70% 30.08 in 10.0 mi SSW 3.5 mph - N/A   Overcast
3:13 AM 41.0 °F 39.0 °F 32.0 °F 70% 30.08 in 10.0 mi South 3.5 mph - N/A   Overcast
3:43 AM 39.2 °F 33.6 °F 32.0 °F 75% 30.07 in 10.0 mi South 8.1 mph - N/A   Mostly Cloudy
3:54 AM 41.0 °F 35.8 °F 32.0 °F 70% 30.07 in 10.0 mi South 8.1 mph - N/A   Mostly Cloudy
3:58 AM 40.5 °F 35.8 °F 32.0 °F 72% 30.05 in 10.0 mi South 6.9 mph - 0.01 in   Mostly Cloudy
4:11 AM 41.0 °F 34.7 °F 32.0 °F 70% 30.08 in 10.0 mi SSW 10.4 mph - N/A   Overcast
4:31 AM 39.2 °F 32.5 °F 32.0 °F 75% 30.07 in 10.0 mi South 10.4 mph - N/A   Overcast
4:40 AM 39.2 °F 33.0 °F 32.0 °F 75% 30.06 in 10.0 mi South 9.2 mph - N/A   Overcast
4:45 AM 39.2 °F 31.6 °F 32.0 °F 75% 30.06 in 10.0 mi South 12.7 mph - N/A   Overcast
4:55 AM 41.0 °F 33.5 °F 32.0 °F 70% 30.06 in 9.0 mi SSE 13.8 mph - N/A   Overcast
4:58 AM 40.5 °F 32.8 °F 33.4 °F 76% 30.03 in 9.0 mi SSE 13.8 mph - 0.01 in   Overcast
5:03 AM 39.2 °F 32.0 °F 32.0 °F 75% 30.06 in 10.0 mi SSE 11.5 mph - N/A   Overcast
5:04 AM 39.2 °F 32.0 °F 32.0 °F 75% 30.06 in 10.0 mi SSE 11.5 mph - N/A   Overcast
5:58 AM 40.8 °F 35.0 °F 34.2 °F 77% 30.04 in 10.0 mi SSE 9.2 mph - 0.00 in   Overcast
6:49 AM 41.0 °F 34.7 °F 32.0 °F 70% 30.06 in 10.0 mi SSW 10.4 mph - N/A Rain Light Rain Showers
6:58 AM 41.4 °F 35.2 °F 33.1 °F 72% 30.03 in 8.0 mi South 10.4 mph - 0.00 in Rain Light Rain Showers
7:27 AM 41.0 °F 35.8 °F 32.0 °F 70% 30.07 in 4.0 mi South 8.1 mph - N/A Rain Light Rain
7:58 AM 42.1 °F 37.7 °F 32.4 °F 68% 30.05 in 5.0 mi SSE 6.9 mph - 0.08 in Rain Rain
8:58 AM 41.9 °F 36.9 °F 34.5 °F 75% 30.04 in 10.0 mi SE 8.1 mph - 0.04 in Rain Light Rain
9:58 AM 43.0 °F 37.2 °F 33.6 °F 70% 30.04 in 10.0 mi SSE 10.4 mph - 0.00 in Rain Light Rain
10:09 AM 42.8 °F 37.5 °F 32.0 °F 66% 30.07 in 10.0 mi SSE 9.2 mph - N/A   Overcast
10:58 AM 46.0 °F 40.2 °F 31.5 °F 57% 30.03 in 10.0 mi South 12.7 mph - 0.00 in   Mostly Cloudy
11:23 AM 46.4 °F 40.7 °F 32.0 °F 57% 30.08 in 10.0 mi South 12.7 mph - N/A   Mostly Cloudy
11:58 AM 48.0 °F - 30.4 °F 51% 30.01 in 10.0 mi South 9.2 mph - N/A   Mostly Cloudy
12:28 PM 50.0 °F - 26.6 °F 40% 30.06 in 10.0 mi South 6.9 mph - N/A   Mostly Cloudy
12:58 PM 51.8 °F - 23.4 °F 33% 29.98 in 10.0 mi SW 10.4 mph - N/A   Mostly Cloudy
1:28 PM 51.8 °F - 23.0 °F 33% 30.04 in 10.0 mi SW 9.2 mph - N/A   Mostly Cloudy
1:58 PM 51.6 °F - 21.9 °F 31% 29.97 in 10.0 mi WSW 12.7 mph - N/A   Overcast
2:56 PM 48.2 °F - 26.6 °F 43% 30.03 in 10.0 mi NNE 5.8 mph - N/A Rain Light Rain
2:58 PM 48.0 °F - 26.6 °F 43% 29.99 in 10.0 mi NNE 5.8 mph - 0.00 in Rain Light Rain
3:19 PM 48.2 °F - 26.6 °F 43% 30.03 in 10.0 mi North 2.3 mph - N/A   Mostly Cloudy
3:58 PM 50.5 °F - 21.9 °F 33% 29.98 in 10.0 mi South 4.6 mph - 0.00 in   Mostly Cloudy
4:33 PM 50.0 °F - 26.6 °F 40% 30.03 in 10.0 mi SSW 9.2 mph - N/A Thunderstorm Mostly Cloudy
4:43 PM 50.0 °F - 26.6 °F 40% 30.04 in 10.0 mi SW 9.2 mph - N/A Thunderstorm Mostly Cloudy
4:58 PM 49.5 °F - 27.0 °F 42% 30.00 in 10.0 mi NW 10.4 mph - N/A Thunderstorm Overcast
5:08 PM 48.2 °F - 26.6 °F 43% 30.06 in 10.0 mi NNW 5.8 mph - N/A   Mostly Cloudy
5:58 PM 45.7 °F - 28.0 °F 50% 30.01 in 10.0 mi SW 1.2 mph - N/A   Mostly Cloudy
6:33 PM 46.4 °F - 26.6 °F 46% 30.06 in 10.0 mi Calm Calm - N/A   Mostly Cloudy
6:38 PM 46.4 °F - 26.6 °F 46% 30.07 in 10.0 mi North 1.2 mph - N/A   Mostly Cloudy
6:43 PM 46.4 °F - 26.6 °F 46% 30.07 in 10.0 mi Calm Calm - N/A   Mostly Cloudy
6:58 PM 44.8 °F 43.3 °F 26.8 °F 49% 30.04 in 10.0 mi NW 3.5 mph - N/A   Overcast
7:03 PM 46.4 °F 44.3 °F 23.0 °F 40% 30.07 in 10.0 mi NW 4.6 mph - N/A   Overcast
7:58 PM 45.9 °F 44.6 °F 24.4 °F 43% 30.04 in 10.0 mi North 3.5 mph - N/A   Overcast
8:58 PM 44.1 °F 39.5 °F 22.8 °F 43% 30.06 in 10.0 mi North 8.1 mph - N/A   Overcast
9:58 PM 43.5 °F 38.9 °F 21.4 °F 41% 30.09 in 10.0 mi NNW 8.1 mph - N/A   Overcast
10:58 PM 42.4 °F 39.6 °F 21.6 °F 44% 30.07 in 10.0 mi NNW 4.6 mph - N/A   Overcast
11:58 PM 40.1 °F - 22.8 °F 50% 30.09 in 10.0 mi Calm Calm - N/A   Overcast